This is the latest recevied weather packets stored in our database for station/object KB7KFC-3. If no packets are shown the sender has not sent any weather packets the latest 10 day(s).
| Time | Temp. | Humidity | Pressure | Rain* | Wind** | Luminosity | Snow |
|---|---|---|---|---|---|---|---|
| 1778101086 | 27.22° C | 20% | 1015.5 hPa | 0 mm | - | - | - |
| 1778100905 | 27.78° C | 20% | 1015.6 hPa | 0 mm | - | - | - |
| 1778100725 | 27.78° C | 25% | 1015.7 hPa | 0 mm | - | - | - |
| 1778100545 | 27.22° C | 19% | 1015.6 hPa | 0 mm | - | - | - |
| 1778100365 | 27.22° C | 20% | 1015.6 hPa | 0 mm | - | - | - |
| 1778100185 | 27.22° C | 22% | 1015.6 hPa | 0 mm | - | - | - |
| 1778100004 | 27.22° C | 20% | 1015.7 hPa | 0 mm | - | - | - |
| 1778099825 | 26.67° C | 20% | 1015.7 hPa | 0 mm | - | - | - |
| 1778099644 | 27.22° C | 20% | 1015.9 hPa | 0 mm | - | - | - |
| 1778099464 | 27.22° C | 20% | 1015.9 hPa | 0 mm | - | - | - |
| 1778099285 | 27.22° C | 20% | 1016 hPa | 0 mm | - | - | - |
| 1778099106 | 27.22° C | 21% | 1016 hPa | 0 mm | - | - | - |
| 1778098925 | 27.22° C | 22% | 1015.9 hPa | 0 mm | - | - | - |
| 1778098746 | 26.67° C | 21% | 1016 hPa | 0 mm | - | - | - |
| 1778098566 | 26.67° C | 21% | 1016.1 hPa | 0 mm | - | - | - |
| 1778098384 | 27.22° C | 21% | 1016.1 hPa | 0 mm | - | - | - |
| 1778098204 | 27.22° C | 21% | 1016.1 hPa | 0 mm | - | - | - |
| 1778098024 | 26.67° C | 23% | 1016.1 hPa | 0 mm | - | - | - |
| 1778097845 | 26.67° C | 20% | 1016.1 hPa | 0 mm | - | - | - |
| 1778097665 | 26.11° C | 22% | 1016.2 hPa | 0 mm | - | - | - |
| 1778097486 | 26.11° C | 21% | 1016.1 hPa | 0 mm | - | - | - |
| 1778097305 | 26.11° C | 20% | 1016.2 hPa | 0 mm | - | - | - |
| 1778097124 | 27.22° C | 20% | 1016.3 hPa | 0 mm | - | - | - |
| 1778096944 | 27.22° C | 22% | 1016.3 hPa | 0 mm | - | - | - |
| 1778096764 | 27.22° C | 23% | 1016.3 hPa | 0 mm | - | - | - |
* Rain latest hour (hover to see other rain measurements)
** Current wind speed in m/s (hover to see current wind gust speed)